sat.trackr.live / text

‹ back to catalog

STARLINK-34430

NORAD 64456 · 2025-130U

PAYLOAD ACTIVE UNKNOWN

§ Identity

Operator
Country
US
Launch date
2025-06-18
Launch site
AFETR
Launch vehicle
Mass (kg)
RCS (m²)

Purposes: comms

External: N2YO · Heavens-Above · Gunter

§ Orbital elements

Epoch: 2026-09-20T06:55:26.748192Z

Period
93.85 min
Inclination
53.1564°
Eccentricity
0.0001024
Mean motion
15.34401941 rev/d
Perigee alt
462.0 km
Apogee alt
463.4 km
Semi-major
6,840.8 km
B*
3.7898e-4
RAAN
262.7555°
Arg perigee
80.1974°
Mean anomaly
279.9144°
Rev number
7,052

§ Raw data

STARLINK-344301 64456U 25130U   26263.28850403  .00012450  00000+0  37898-3 0  99942 64456  53.1564 262.7555 0001024  80.1974 279.9144 15.34401941 70521

JSON: /api/v1/satellites/64456 · /tle

For live sub-satellite position, see the globe view (requires WebGL).

§ Visibility from observer

Set your observer location to see the next 7 days of passes ≥ 10°. The values pass through the URL so the page stays shareable.

No JS? Fill the form by hand. The geolocation button needs JavaScript.